Weather History for Prairie Du Chien, WI

Change the Weather History Date:

Wednesday, February 27, 2013

  Actual Average Record
Temperature  
Mean Temperature 32 °F -  
Max Temperature 33 °F 38 °F 55 °F (1958)
Min Temperature 30 °F 21 °F -8 °F (2014)
Degree Days  
Heating Degree Days 34    
Moisture  
Dew Point 29 °F    
Average Humidity 89    
Maximum Humidity 93    
Minimum Humidity 80    
Precipitation  
Precipitation 0.06 in - - ()
Sea Level Pressure  
Sea Level Pressure 29.76 in    
Wind  
Wind Speed 9 mph (NNW)    
Max Wind Speed 14 mph    
Max Gust Speed 18 mph    
Visibility 5 miles    
Events Rain , Snow    
Averages and records for this station are not official NWS values.
T = Trace of Precipitation, MM = Missing Value Source: NWS Daily Summary

Daily Weather History Graph

Daily Weather History Graph

Search for Another Location

Airport:

Trip Planner

Search our weather history database for the weather conditions in past years. The results will help you decide how hot, cold, wet, or windy it might be!

Date:

Astronomy

Feb. 27, 2013 Rise Set
Actual Time 6:43 AM CST 5:51 PM CST
Civil Twilight 6:14 AM CST 6:20 PM CST
Nautical Twilight 5:41 AM CST 6:53 PM CST
Astronomical Twilight 5:09 AM CST 7:25 PM CST
Moon 8:18 PM CST (2/27) 7:14 AM CST (2/27)
Length of Visible Light 12h 05m
Length of Day
11h 08m
Waning Gibbous, 96% of the Moon is Illuminated
Feb 27
Waning Gibbous
Mar 4
Last Quarter
Mar 11
New
Mar 19
First Quarter
Mar 27
Full

Hourly Weather History & Observations

Time (CST) Temp. Windchill Dew Point Humidity Pressure Visibility Wind Dir Wind Speed Gust Speed Precip Events Conditions
12:15 AM 32.0 °F 25.6 °F 28.4 °F 87% 29.73 in 7.0 mi NNW 6.9 mph - N/A   Overcast
12:35 AM 32.0 °F 26.4 °F 26.6 °F 80% 29.73 in 5.0 mi North 5.8 mph - N/A   Overcast
12:55 AM 30.2 °F 22.6 °F 28.4 °F 93% 29.73 in 5.0 mi NNW 8.1 mph - N/A   Overcast
1:15 AM 30.2 °F 23.4 °F 28.4 °F 93% 29.73 in 3.0 mi NNW 6.9 mph - N/A Snow Light Snow
1:35 AM 30.2 °F 22.6 °F 26.6 °F 86% 29.73 in 4.0 mi NNW 8.1 mph - N/A Snow Light Snow
2:15 AM 30.2 °F 21.9 °F 28.4 °F 93% 29.72 in 3.0 mi NNW 9.2 mph - N/A Snow Light Snow
2:55 AM 30.2 °F 24.3 °F 28.4 °F 93% 29.72 in 2.0 mi NNW 5.8 mph - N/A Snow Light Snow
3:15 AM 30.2 °F 22.6 °F 28.4 °F 93% 29.71 in 4.0 mi NNW 8.1 mph - N/A   Overcast
3:35 AM 30.2 °F 22.6 °F 26.6 °F 86% 29.71 in 4.0 mi NNW 8.1 mph - N/A   Overcast
3:55 AM 30.2 °F 23.4 °F 26.6 °F 86% 29.71 in 3.0 mi NNW 6.9 mph - N/A   Overcast
4:15 AM 30.2 °F 23.4 °F 28.4 °F 93% 29.71 in 2.0 mi NNW 6.9 mph - N/A Snow Light Snow
4:35 AM 30.2 °F 21.9 °F 28.4 °F 93% 29.71 in 1.8 mi NNW 9.2 mph - N/A Snow Light Snow
4:55 AM 30.2 °F 21.3 °F 28.4 °F 93% 29.71 in 1.8 mi NNW 10.4 mph - N/A Snow Light Snow
5:15 AM 30.2 °F 22.6 °F 28.4 °F 93% 29.71 in 1.5 mi NW 8.1 mph - N/A Snow Light Snow
5:35 AM 30.2 °F 23.4 °F 28.4 °F 93% 29.71 in 1.5 mi NNW 6.9 mph - N/A Snow Light Snow
5:55 AM 30.2 °F 22.6 °F 28.4 °F 93% 29.71 in 3.0 mi NNW 8.1 mph - N/A Snow Light Snow
6:15 AM 30.2 °F 22.6 °F 26.6 °F 86% 29.72 in 2.5 mi NNW 8.1 mph - N/A Snow Light Snow
6:35 AM 30.2 °F 21.9 °F 28.4 °F 93% 29.72 in 1.8 mi NW 9.2 mph - N/A Snow Light Snow
6:55 AM 30.2 °F 21.9 °F 28.4 °F 93% 29.72 in 2.5 mi NW 9.2 mph - N/A Snow Light Snow
7:35 AM 30.2 °F 23.4 °F 26.6 °F 86% 29.72 in 5.0 mi NW 6.9 mph - N/A Snow Light Snow
7:55 AM 30.2 °F 23.4 °F 26.6 °F 86% 29.72 in 7.0 mi NW 6.9 mph - N/A   Overcast
8:15 AM 30.2 °F 21.3 °F 26.6 °F 86% 29.72 in 3.0 mi NW 10.4 mph - N/A   Overcast
8:35 AM 30.2 °F 21.9 °F 26.6 °F 86% 29.72 in 7.0 mi NNW 9.2 mph - N/A   Overcast
8:55 AM 30.2 °F 21.3 °F 26.6 °F 86% 29.72 in 3.0 mi NNW 10.4 mph - N/A Snow Light Snow
9:15 AM 30.2 °F 21.3 °F 26.6 °F 86% 29.73 in 2.0 mi NW 10.4 mph 17.3 mph N/A Snow Light Snow
9:35 AM 30.2 °F 21.3 °F 26.6 °F 86% 29.73 in 1.2 mi NNW 10.4 mph - N/A Snow Light Snow
9:55 AM 30.2 °F 22.6 °F 28.4 °F 93% 29.73 in 1.2 mi NW 8.1 mph - N/A Snow Light Snow
10:15 AM 30.2 °F 20.8 °F 28.4 °F 93% 29.73 in 1.2 mi NNW 11.5 mph - N/A Snow Light Snow
10:35 AM 30.2 °F 21.3 °F 28.4 °F 93% 29.73 in 1.8 mi NW 10.4 mph - N/A Snow Light Snow
10:55 AM 30.2 °F 21.9 °F 28.4 °F 93% 29.74 in 3.0 mi NNW 9.2 mph - N/A Snow Light Snow
11:15 AM 32.0 °F 24.2 °F 28.4 °F 87% 29.74 in 7.0 mi NNW 9.2 mph - N/A   Overcast
11:35 AM 32.0 °F 24.8 °F 26.6 °F 80% 29.74 in 10.0 mi NNW 8.1 mph - N/A   Overcast
11:55 AM 32.0 °F 23.6 °F 26.6 °F 80% 29.74 in 7.0 mi NW 10.4 mph - N/A   Overcast
12:15 PM 32.0 °F 24.2 °F 26.6 °F 80% 29.73 in 4.0 mi NNW 9.2 mph - N/A Snow Light Snow
12:35 PM 32.0 °F 23.0 °F 28.4 °F 87% 29.73 in 1.5 mi NNW 11.5 mph - N/A Snow Light Snow
12:55 PM 32.0 °F 24.2 °F 28.4 °F 87% 29.73 in 1.0 mi NW 9.2 mph - N/A Snow Light Snow
1:15 PM 32.0 °F 23.6 °F 28.4 °F 87% 29.73 in 1.0 mi NW 10.4 mph - 0.01 in Snow Light Snow
1:35 PM 32.0 °F 24.2 °F 30.2 °F 93% 29.73 in 1.5 mi NW 9.2 mph - 0.03 in Snow Light Snow
1:55 PM 32.0 °F 24.8 °F 30.2 °F 93% 29.74 in 1.2 mi NW 8.1 mph - 0.05 in Snow Light Snow
2:15 PM 32.0 °F 23.6 °F 30.2 °F 93% 29.74 in 1.5 mi NW 10.4 mph - 0.01 in   Overcast
2:35 PM 33.8 °F 26.4 °F 30.2 °F 87% 29.74 in 2.0 mi NNW 9.2 mph - 0.01 in   Overcast
2:55 PM 33.8 °F 26.4 °F 30.2 °F 87% 29.75 in 4.0 mi NW 9.2 mph - 0.01 in   Overcast
3:15 PM 33.8 °F 26.4 °F 30.2 °F 87% 29.75 in 3.0 mi NW 9.2 mph - N/A   Overcast
3:35 PM 33.8 °F 27.0 °F 30.2 °F 87% 29.75 in 7.0 mi NW 8.1 mph - N/A Rain Light Rain
3:55 PM 33.8 °F 25.8 °F 30.2 °F 87% 29.76 in 2.5 mi NNW 10.4 mph - N/A Snow Light Snow
4:15 PM 33.8 °F 27.7 °F 30.2 °F 87% 29.76 in 3.0 mi NW 6.9 mph - N/A Rain Light Rain
4:35 PM 33.8 °F 25.3 °F 30.2 °F 87% 29.77 in 5.0 mi NNW 11.5 mph - N/A Rain Light Rain
4:55 PM 33.8 °F 27.0 °F 30.2 °F 87% 29.78 in 5.0 mi NNW 8.1 mph - N/A   Overcast
5:15 PM 33.8 °F 26.4 °F 30.2 °F 87% 29.79 in 7.0 mi NNW 9.2 mph - N/A Rain Light Rain
5:35 PM 33.8 °F 26.4 °F 30.2 °F 87% 29.79 in 10.0 mi NNW 9.2 mph - N/A Rain Light Rain
5:55 PM 33.8 °F 24.3 °F 30.2 °F 87% 29.80 in 10.0 mi NNW 13.8 mph - N/A Rain Light Rain
6:15 PM 33.8 °F 26.4 °F 30.2 °F 87% 29.81 in 10.0 mi NNW 9.2 mph 17.3 mph N/A   Overcast
6:35 PM 33.8 °F 24.3 °F 28.4 °F 81% 29.81 in 10.0 mi NNW 13.8 mph 18.4 mph N/A   Overcast
6:55 PM 33.8 °F 26.4 °F 30.2 °F 87% 29.82 in 7.0 mi NNW 9.2 mph - N/A Snow Light Snow
7:15 PM 33.8 °F 24.8 °F 28.4 °F 81% 29.82 in 5.0 mi NNW 12.7 mph - N/A Snow Light Snow
7:35 PM 32.0 °F 22.5 °F 30.2 °F 93% 29.82 in 2.5 mi NNW 12.7 mph 16.1 mph N/A Snow Light Snow
7:55 PM 32.0 °F 23.6 °F 30.2 °F 93% 29.82 in 2.5 mi NNW 10.4 mph - N/A Snow Light Snow
8:15 PM 32.0 °F 24.2 °F 30.2 °F 93% 29.83 in 2.5 mi NNW 9.2 mph - N/A Snow Light Snow
8:35 PM 32.0 °F 23.6 °F 30.2 °F 93% 29.83 in 3.0 mi NW 10.4 mph - N/A Snow Light Snow
8:55 PM 32.0 °F 23.0 °F 30.2 °F 93% 29.84 in 4.0 mi NNW 11.5 mph - N/A Snow Light Snow
9:15 PM 32.0 °F 23.6 °F 30.2 °F 93% 29.85 in 7.0 mi NNW 10.4 mph 16.1 mph N/A   Overcast
9:35 PM 32.0 °F 24.2 °F 30.2 °F 93% 29.85 in 10.0 mi NNW 9.2 mph - N/A   Overcast
9:55 PM 32.0 °F 24.2 °F 28.4 °F 87% 29.86 in 10.0 mi NNW 9.2 mph 16.1 mph N/A   Overcast
10:15 PM 32.0 °F 23.0 °F 28.4 °F 87% 29.86 in 10.0 mi NW 11.5 mph 17.3 mph N/A   Overcast
10:35 PM 32.0 °F 22.1 °F 28.4 °F 87% 29.86 in 10.0 mi NNW 13.8 mph 18.4 mph N/A   Overcast
10:55 PM 32.0 °F 22.5 °F 28.4 °F 87% 29.86 in 10.0 mi NNW 12.7 mph - N/A   Overcast
11:15 PM 32.0 °F 22.5 °F 28.4 °F 87% 29.86 in 10.0 mi NNW 12.7 mph - N/A   Overcast
11:35 PM 32.0 °F 22.5 °F 28.4 °F 87% 29.87 in 10.0 mi NNW 12.7 mph - N/A   Overcast
11:55 PM 32.0 °F 22.1 °F 28.4 °F 87% 29.87 in 10.0 mi NNW 13.8 mph 18.4 mph N/A   Overcast